SCP
1 1 0 0 0 0 0 0 0 0 0 0 0 0 0 0 0 0 0 0 0 0 0 0 0 0 0 0 1 1 1 0 0 0 0 0 0 0 1 1 1 1 1 1 1 1 1 1 1
1 0 0 0 0 0 0 0 0 0 0 0 0 0 0 0 0 0 0 0 0 0 0 0 0 0 0 0 0 0 0 0 0 0 0 0 0 0 1 1 1 1 1 1 1 1 1 1 1
0 0 0 0 0 0 0 0 0 0 0 0 0 0 0 0 0 0 0 0 0 0 0 0 0 0 0 0 0 0 0 0 0 0 0 0 0 1 1 1 1 0 0 1 1 1 1 1 1
0 0 0 0 0 0 0 0 0 0 0 0 0 0 0 0 0 0 0 0 0 0 0 0 0 0 0 0 0 0 0 0 0 0 0 0 0 0 1 1 1 0 0 0 1 1 1 1 1
0 0 0 0 0 0 0 0 0 0 0 0 0 0 0 0 0 0 0 0 0 0 0 0 0 0 0 0 0 0 0 0 0 0 0 0 0 0 0 0 0 1 1 1 1 1 1 1 1
0 0 0 0 0 0 0 0 0 0 0 0 0 0 0 0 0 0 0 0 0 0 0 0 0 0 0 0 0 0 0 0 0 0 0 0 0 0 0 0 0 0 1 1 1 1 1 1 1
0 0 0 0 0 0 0 0 0 0 0 0 0 0 0 0 0 0 0 0 0 0 0 0 0 0 0 0 1 0 0 0 0 0 0 0 0 0 0 0 0 0 1 1 1 1 1 2 2
0 0 0 0 0 0 0 0 0 0 0 0 0 0 0 0 0 0 0 0 0 0 0 0 0 0 0 0 0 0 0 0 0 0 0 0 0 0 0 0 0 0 1 1 1 2 3 3 4
0 0 0 0 0 0 0 0 0 0 0 0 0 0 0 0 0 0 0 0 0 0 0 0 0 0 0 0 0 0 0 0 0 0 0 0 0 0 0 0 1 1 1 1 1 2 5 5 5
0 0 0 0 0 0 0 0 0 0 0 0 0 0 0 0 1 0 0 0 0 0 0 0 0 0 0 0 0 0 0 0 0 0 0 0 0 0 0 0 1 1 1 1 1 2 4 4 4
0 0 0 0 0 0 0 0 0 0 0 0 0 0 0 1 1 1 0 0 0 0 0 0 0 0 0 0 0 0 0 0 0 0 0 0 0 0 0 0 0 1 1 1 1 1 1 1 1
0 0 0 0 0 0 0 0 0 0 0 0 0 0 0 1 1 1 1 0 0 0 0 0 0 0 0 0 0 0 0 0 0 0 0 0 0 0 0 0 0 0 0 0 0 0 0 0 0
0 0 0 0 0 0 0 0 0 0 0 0 0 0 0 1 1 1 1 1 1 1 0 0 0 0 0 0 0 0 0 0 0 0 0 0 0 0 0 0 0 0 0 0 0 0 0 0 0
0 0 0 0 0 0 0 0 0 0 0 0 0 0 0 0 1 1 1 1 1 1 1 0 0 0 0 0 0 0 0 0 0 0 0 0 0 0 0 0 0 0 0 0 0 0 0 0 0
0 0 0 0 0 0 0 0 0 0 0 0 0 0 0 0 1 1 1 1 1 1 1 1 0 0 0 0 0 0 0 0 0 0 0 0 0 0 0 0 0 0 0 0 0 0 0 0 0
0 0 0 0 0 0 0 0 0 0 0 0 0 0 0 0 0 0 1 1 1 1 1 1 1 0 0 0 0 0 0 0 0 0 0 0 0 0 0 0 0 0 0 0 0 0 0 0 0
0 0 0 0 0 0 0 0 0 0 0 0 0 0 0 0 0 0 0 1 1 1 2 1 1 1 1 1 0 0 0 0 0 0 0 0 0 0 0 0 0 0 0 0 0 0 0 0 0
0 0 0 0 0 0 0 0 0 0 0 0 0 0 0 0 0 0 0 1 1 2 2 2 2 1 1 1 0 0 0 0 0 0 0 0 0 0 0 0 0 0 0 0 0 0 0 0 0
0 0 0 0 0 0 0 0 0 0 0 0 0 0 0 0 0 0 1 1 2 2 2 2 2 1 1 0 0 0 0 0 0 0 0 0 0 0 0 0 0 0 0 0 0 0 0 0 0
0 0 0 0 0 0 0 0 0 0 0 0 0 0 0 0 0 1 1 1 2 2 2 2 1 1 0 0 0 0 0 0 0 0 0 0 0 0 0 0 0 0 0 0 0 0 0 0 0
0 0 0 0 0 0 0 0 0 0 0 0 0 0 0 1 1 1 1 1 1 2 2 1 1 0 0 0 0 0 0 0 0 0 0 0 0 0 0 0 0 0 0 0 0 0 0 0 0
0 0 0 0 0 0 0 0 0 0 0 0 0 0 0 0 1 1 1 1 1 1 1 1 1 0 0 0 0 0 0 0 0 0 0 0 0 0 0 0 0 0 0 0 0 0 0 0 0
0 0 0 0 0 0 0 0 0 0 0 0 0 0 0 0 0 0 0 0 1 1 1 1 0 0 0 0 0 0 0 0 0 0 0 0 0 0 0 0 0 0 0 0 0 0 0 0 0
0 0 0 0 0 0 0 0 0 0 0 0 0 0 0 0 0 0 0 0 0 0 0 0 0 0 0 0 0 0 0 0 0 0 0 0 0 0 0 0 0 0 0 0 0 0 0 0 0
0 0 0 0 0 0 0 0 0 0 0 0 0 0 0 0 0 0 0 0 0 0 0 0 0 0 0 0 0 0 0 0 0 0 0 0 0 0 0 0 0 0 0 0 0 0 0 0 0
0 0 0 0 0 0 0 0 0 0 0 0 0 0 0 0 0 0 0 0 0 0 0 0 0 0 0 0 0 0 0 0 0 0 0 0 0 0 0 0 0 0 0 0 0 0 0 0 0
0 0 0 0 0 0 0 0 0 0 0 0 0 0 0 0 0 0 0 0 0 0 0 0 0 0 0 0 0 0 0 0 0 0 0 0 0 0 0 0 0 0 0 0 0 0 0 0 0
0 0 0 0 0 0 0 0 0 0 0 0 0 0 0 0 0 0 0 0 0 0 0 0 0 0 0 0 0 0 0 0 0 0 0 0 0 0 0 0 0 0 0 0 0 0 0 0 0
0 0 0 0 0 0 0 0 0 0 0 0 0 0 0 0 0 0 0 0 0 0 0 0 0 0 0 0 0 0 0 0 0 0 0 0 0 0 0 0 0 0 0 0 0 0 0 0 0
0 0 0 0 0 0 0 0 0 0 0 0 0 0 0 0 0 0 0 0 0 0 0 0 0 0 0 0 0 0 0 0 0 0 0 0 0 0 0 0 0 0 0 0 0 0 0 0 0
Wind_Speed
2 3 3 4 6 6 3 2 0 1 2 2 3 5 5 3 2 1 2 0 0 1 1 2 2 4 4 5 5 5 6 6 6 6 6 7 6 6 6 7 7 6 7 7 7 6 6 6 7
2 2 4 5 6 4 2 2 1 1 3 2 3 4 4 3 2 2 0 0 1 1 1 2 3 4 4 5 5 5 6 6 6 6 6 6 6 6 7 7 7 7 7 7 7 6 6 6 6
2 3 4 5 4 3 1 1 2 3 3 2 3 3 3 1 1 2 2 2 2 2 2 2 4 4 4 5 5 5 5 6 6 6 6 7 6 7 7 7 7 7 7 6 6 6 6 6 6
3 5 6 6 4 0 2 1 3 4 3 4 3 3 2 1 1 2 2 3 3 2 2 2 4 5 5 5 5 6 5 5 5 6 6 7 7 7 7 6 6 6 6 6 6 6 6 6 6
4 5 6 4 2 2 1 0 1 3 2 2 3 3 2 3 2 4 3 3 2 1 2 2 4 5 5 5 6 6 6 6 6 6 7 7 7 7 7 7 7 7 7 7 7 6 6 6 6
5 5 5 3 2 2 2 1 3 4 3 2 3 2 1 1 3 3 3 2 2 1 1 2 4 4 4 5 5 6 6 7 7 7 7 7 7 7 8 7 7 7 7 7 7 7 6 6 7
5 5 4 2 1 1 1 1 2 3 2 2 3 3 1 1 1 2 3 2 2 1 2 2 3 4 4 5 5 5 6 7 7 7 7 7 7 8 8 7 7 7 7 7 6 6 6 7 7
4 6 3 1 2 0 0 1 1 2 1 2 3 4 2 2 2 3 3 3 2 1 2 2 2 3 3 4 5 6 6 7 7 8 8 8 8 8 8 7 7 7 7 7 7 7 7 8 8
4 6 2 2 3 1 1 2 1 2 3 2 1 2 2 4 5 5 3 2 2 1 1 1 2 2 3 2 4 5 6 7 7 6 8 7 5 5 5 6 7 8 9 9 10 10 10 10 9
5 4 2 3 3 2 1 2 2 3 3 2 2 2 4 5 5 4 3 2 1 1 1 0 1 2 2 2 3 2 3 3 3 3 4 3 4 4 5 8 10 10 11 11 12 12 11 9 5
4 4 2 1 2 3 2 1 1 4 1 3 4 3 4 4 4 4 3 2 2 1 0 0 0 1 1 1 2 2 2 2 3 3 3 3 3 3 4 3 5 6 7 6 7 7 5 5 4
3 1 2 1 2 2 2 2 2 2 3 3 4 5 4 4 4 4 3 2 2 1 1 1 1 1 1 1 1 2 1 2 2 2 3 2 2 3 3 3 3 3 3 4 4 4 5 6 6
3 1 1 1 2 2 3 2 2 1 1 3 5 5 5 4 3 2 2 2 2 2 2 1 1 1 1 1 1 2 1 1 1 2 2 2 2 2 3 2 3 3 3 3 4 4 5 5 6
2 2 2 2 2 1 3 1 2 2 2 5 5 4 4 5 4 2 2 2 2 2 2 2 2 2 2 2 1 1 1 1 2 2 2 2 2 2 3 3 3 3 3 3 3 4 4 4 4
3 4 4 2 1 1 3 3 1 2 4 4 3 3 3 3 3 3 4 3 3 3 2 2 3 2 2 2 1 1 1 1 1 1 2 2 2 3 3 3 3 2 3 3 4 4 4 4 4
4 4 2 3 0 1 3 2 5 2 4 3 2 2 3 3 3 3 3 3 3 2 3 2 3 3 3 2 2 2 2 2 1 1 2 3 3 3 3 2 2 2 2 3 3 3 4 4 4
3 1 1 3 1 1 3 4 5 2 4 4 3 3 3 3 3 3 3 3 3 3 3 3 3 3 3 3 3 3 2 2 2 2 2 2 3 3 3 3 2 2 3 2 3 3 3 3 3
2 2 1 3 2 2 2 5 4 2 4 5 4 4 3 4 5 3 3 3 3 3 3 3 3 3 3 3 3 2 3 2 2 2 2 2 2 3 3 3 2 2 3 3 3 3 3 3 3
3 3 3 4 2 2 4 5 5 3 3 4 4 4 5 6 4 2 2 3 3 3 3 3 4 3 3 2 2 2 1 1 1 1 2 2 2 3 3 2 2 2 3 3 3 3 3 2 2
3 2 2 3 0 2 2 4 5 2 4 5 6 6 6 4 2 2 2 3 3 3 3 3 4 4 3 2 2 2 2 1 1 1 2 2 2 2 2 3 2 2 3 3 2 2 2 1 1
3 4 4 2 1 2 2 5 4 3 1 2 3 4 4 5 5 4 3 3 3 3 4 4 4 4 3 3 3 3 3 2 2 2 1 1 1 1 2 2 2 2 2 2 2 2 2 2 1
3 4 4 2 2 2 1 3 6 3 3 2 3 3 3 3 3 3 3 3 4 4 3 4 4 4 3 4 4 4 2 1 1 0 0 1 1 1 1 2 2 2 2 2 2 2 1 2 1
4 1 3 2 2 1 1 1 8 2 3 5 4 4 4 4 4 3 3 3 3 3 3 3 4 3 3 3 4 4 2 2 1 1 1 1 1 1 1 1 2 2 2 2 2 2 1 2 2
3 5 5 5 4 1 3 3 6 3 5 4 3 4 4 4 3 3 2 2 2 2 2 3 4 3 2 3 3 4 4 3 2 1 1 0 0 1 0 1 1 2 2 2 2 2 2 1 2
4 5 3 4 3 4 2 2 8 6 5 5 5 4 4 4 4 3 3 3 2 3 3 3 4 3 2 3 3 3 3 3 3 3 2 1 1 1 1 1 1 1 2 2 2 2 1 1 1
3 7 6 3 3 4 1 4 7 4 3 3 3 3 3 4 4 4 4 4 3 4 3 3 3 3 3 3 3 2 3 2 2 2 2 2 2 2 2 2 2 2 2 2 2 2 1 1 1
5 3 4 5 2 2 4 5 7 2 2 1 2 3 3 4 4 4 3 3 3 4 4 4 4 3 3 3 3 2 2 2 2 2 2 2 2 2 2 2 2 2 2 2 2 1 2 1 1
4 7 5 4 3 3 5 4 4 4 3 1 1 2 3 3 3 3 3 3 3 3 2 2 3 3 3 3 3 2 2 2 2 2 2 2 2 2 2 2 2 2 2 2 2 1 1 1 1
3 3 4 4 4 4 3 7 5 5 4 4 4 4 4 4 4 4 3 2 2 2 2 3 2 2 3 3 3 2 2 1 1 1 2 2 2 2 3 3 3 3 3 2 2 2 2 2 1
3 5 6 4 4 4 3 8 4 3 3 4 4 3 3 4 4 4 3 3 2 2 2 3 3 3 3 3 3 3 2 1 1 2 2 2 2 2 3 3 3 3 2 2 3 3 2 3 3
Wind_Direction
84 92 83 60 56 53 49 354 10 47 52 39 57 75 84 72 72 114 283 228 168 16 347 348 47 69 62 60 62 63 71 77 76 76 78 79 83 84 79 84 84 83 82 78 79 82 85 92 93
103 92 58 59 75 69 13 337 63 83 139 136 69 68 71 61 69 116 308 218 95 67 16 25 64 72 67 66 65 64 72 75 75 76 79 80 83 85 81 78 80 80 77 74 74 77 79 87 95
100 58 73 66 78 122 139 289 126 84 84 79 65 54 73 76 106 163 208 153 86 53 21 25 65 70 69 69 67 68 72 75 73 71 75 78 81 83 83 79 75 73 75 76 75 74 79 87 93
78 46 54 67 73 144 172 182 132 112 62 48 82 57 40 18 162 161 134 111 88 44 13 18 62 64 65 69 70 68 68 71 71 69 69 71 77 81 81 83 79 73 72 75 76 74 79 87 90
60 69 61 56 37 353 333 190 118 104 83 56 83 84 18 353 75 110 116 104 95 47 15 16 61 62 64 69 67 67 65 63 66 68 68 68 72 73 74 77 75 72 70 72 75 74 74 80 88
57 65 75 70 16 351 348 45 98 87 91 86 92 94 348 4 92 112 108 99 91 81 42 24 46 59 62 64 68 68 67 65 66 65 65 65 66 64 65 67 67 66 66 68 72 75 77 81 88
93 83 98 115 66 6 27 71 102 112 111 140 138 114 300 324 158 119 102 88 79 67 52 29 18 27 38 47 60 64 67 66 63 60 59 62 62 59 58 57 58 59 60 62 67 76 81 81 83
110 94 83 94 117 297 334 78 94 117 122 117 122 137 206 224 143 99 83 74 68 48 34 28 23 25 23 24 46 60 64 62 57 53 53 56 52 48 49 46 49 55 57 56 64 76 79 78 78
81 79 109 179 166 197 115 91 48 72 95 76 107 161 185 131 112 94 73 53 48 42 10 21 24 19 19 22 44 51 53 51 49 45 47 45 32 26 30 38 47 51 53 54 64 72 73 69 67
75 105 186 194 173 156 110 112 132 85 71 58 47 55 91 108 123 130 142 158 179 258 288 16 27 16 18 31 39 31 43 43 46 48 41 38 35 31 35 35 46 52 53 51 58 63 63 60 52
93 139 170 141 160 138 119 92 99 119 149 197 174 159 128 124 139 159 172 182 207 222 275 121 65 35 49 43 38 31 35 39 39 44 46 45 44 37 33 30 32 38 46 43 46 49 51 55 51
96 116 151 151 141 124 135 127 105 158 214 200 168 150 144 150 172 187 187 188 186 176 219 199 135 80 67 70 52 53 47 46 46 40 49 58 54 46 36 37 33 40 42 49 48 52 53 55 54
85 68 48 112 98 111 106 112 139 243 253 110 119 130 152 166 186 198 184 173 169 185 206 179 140 131 100 76 51 68 54 53 55 50 55 74 77 66 54 46 45 46 49 57 58 56 54 51 50
124 89 58 64 79 76 113 71 97 262 119 115 129 158 177 185 190 179 171 179 187 191 189 169 157 154 119 105 92 74 67 68 65 58 63 75 85 83 72 58 53 48 51 61 64 65 61 55 54
92 73 28 12 63 122 98 17 260 220 124 135 159 180 196 211 196 197 196 189 188 188 173 167 160 133 125 117 103 87 76 80 69 63 70 80 89 92 89 72 58 50 55 65 68 63 60 62 57
62 60 21 301 84 157 114 259 269 174 142 174 197 207 218 236 231 229 210 194 186 166 160 166 151 127 118 109 100 81 70 73 69 66 70 81 89 95 93 82 65 59 59 65 73 67 64 58 58
38 70 264 292 252 144 143 236 267 185 164 196 212 217 218 239 252 244 221 197 184 168 160 149 134 130 122 106 89 78 68 62 59 62 67 79 85 95 99 91 77 72 72 63 77 70 78 73 67
207 199 233 252 262 150 191 249 271 224 188 205 217 221 219 228 240 235 209 181 164 148 146 142 132 123 111 95 81 66 58 48 48 56 65 83 88 95 100 98 88 83 83 68 70 77 70 77 74
159 175 236 254 239 168 222 255 268 243 205 213 221 223 225 233 248 220 186 161 143 138 143 150 140 137 125 108 104 92 69 39 37 42 61 80 94 98 98 102 92 88 96 101 97 92 79 66 69
162 193 252 289 262 162 246 273 272 236 217 212 211 220 226 235 240 210 184 163 162 161 160 158 157 155 150 132 125 123 118 92 57 27 45 65 89 100 110 112 114 106 107 101 99 101 98 70 62
206 195 212 231 6 50 28 319 298 283 262 245 218 212 209 210 212 208 193 183 171 177 179 174 168 162 151 128 107 84 65 46 34 26 23 25 80 94 108 123 124 121 123 132 130 121 116 118 55
235 223 188 173 115 294 79 297 293 283 302 279 246 227 216 211 199 197 192 190 193 197 178 162 159 156 153 142 136 135 134 145 204 200 349 19 53 84 112 125 128 130 129 138 152 126 129 131 123
218 131 127 127 146 8 360 206 288 318 284 270 251 225 217 206 190 184 189 197 194 176 163 159 155 158 160 152 150 146 142 153 139 94 78 49 35 60 101 128 129 137 142 158 163 132 135 137 146
124 75 61 54 74 323 248 181 283 250 236 257 245 223 207 196 187 183 172 147 132 128 142 148 154 167 167 161 157 160 161 156 141 137 141 94 344 358 55 138 141 156 159 172 175 160 147 141 136
84 86 34 5 12 259 249 188 254 258 240 226 219 214 194 180 170 162 149 154 159 151 150 150 159 170 173 168 171 173 174 173 175 180 184 188 222 257 242 184 177 176 185 185 167 155 158 159 150
153 138 155 201 230 279 302 230 256 278 268 226 196 176 151 161 168 175 176 173 175 169 161 157 167 173 173 174 183 177 176 178 187 192 190 195 210 223 211 196 196 193 180 176 165 154 179 176 177
136 159 163 136 169 268 283 284 299 335 21 86 120 129 158 177 178 179 173 174 181 181 181 178 178 176 177 181 184 181 185 188 195 201 199 205 218 219 196 187 190 191 178 176 165 169 199 178 184
138 142 105 120 158 262 294 280 261 283 277 256 173 184 196 182 177 175 176 181 185 187 182 173 172 182 183 182 187 179 184 193 193 181 197 217 225 220 197 189 188 188 183 174 165 180 202 181 208
112 111 114 121 154 163 259 273 238 239 234 222 220 205 196 186 186 184 188 188 176 160 164 174 179 173 176 181 184 178 187 190 190 204 222 222 222 215 207 196 190 190 192 189 181 197 190 193 222
177 167 148 155 214 181 189 265 278 258 242 215 222 218 205 195 191 182 177 171 175 189 192 193 194 188 190 186 177 180 184 183 208 230 236 229 229 218 205 194 188 194 195 194 191 204 204 202 214